• In Uzbekistan
  • List of Countries
  • For 7 days
  • Water Temperature
  • Satellite Maps
  • Weather Map
  • Weather Widgets
  • user-avatar
    Login

    Hourly Weather Canberra

    Today, 22 July, Saturday

    Time Temperature Precipitation Wind Pressure Humidity
    00:00 +1°C° 0 mm 1 mps 713 mmHg 79%
    01:00 +1°C° 0 mm 1 mps 713 mmHg 80%
    02:00 +1°C° 0 mm 1 mps 713 mmHg 80%
    03:00 0°C° 0 mm 1 mps 713 mmHg 79%
    04:00 +1°C° 0 mm 1 mps 712 mmHg 78%
    05:00 0°C° 0 mm 1 mps 712 mmHg 77%
    06:00 0°C° 0 mm 1 mps 712 mmHg 75%
    07:00 0°C° 0 mm 1 mps 712 mmHg 74%
    08:00 +2°C° 0 mm 2 mps 712 mmHg 63%
    09:00 +5°C° 0 mm 2 mps 713 mmHg 51%
    10:00 +8°C° 0 mm 2 mps 713 mmHg 39%
    11:00 +10°C° 0 mm 3 mps 712 mmHg 37%
    12:00 +11°C° 0 mm 4 mps 712 mmHg 35%
    13:00 +12°C° 0 mm 4 mps 711 mmHg 33%
    14:00 +12°C° 0 mm 4 mps 711 mmHg 36%
    15:00 +11°C° 0 mm 4 mps 711 mmHg 40%
    16:00 +10°C° 0 mm 4 mps 710 mmHg 44%
    17:00 +8°C° 0 mm 3 mps 710 mmHg 53%
    18:00 +5°C° 0 mm 3 mps 710 mmHg 62%
    19:00 +3°C° 0 mm 3 mps 710 mmHg 71%
    20:00 +3°C° 0 mm 2 mps 710 mmHg 71%
    21:00 +3°C° 0 mm 2 mps 710 mmHg 71%
    22:00 +3°C° 0 mm 2 mps 710 mmHg 71%
    23:00 +3°C° 0 mm 2 mps 710 mmHg 69%

    Tomorrow, 23 July, Sunday

    Time Temperature Precipitation Wind Pressure Humidity
    00:00 +3°C° 0 mm 2 mps 710 mmHg 68%
    01:00 +3°C° 0 mm 2 mps 710 mmHg 66%
    02:00 +3°C° 0 mm 2 mps 709 mmHg 66%
    03:00 +2°C° 0 mm 2 mps 709 mmHg 65%
    04:00 +2°C° 0 mm 2 mps 709 mmHg 65%
    05:00 +2°C° 0 mm 2 mps 709 mmHg 65%
    06:00 +1°C° 0 mm 3 mps 709 mmHg 65%
    07:00 +1°C° 0 mm 3 mps 709 mmHg 65%
    08:00 +3°C° 0 mm 4 mps 709 mmHg 57%
    09:00 +6°C° 0 mm 5 mps 709 mmHg 50%
    10:00 +8°C° 0 mm 6 mps 709 mmHg 43%
    11:00 +10°C° 0 mm 6 mps 708 mmHg 43%
    12:00 +11°C° 0 mm 7 mps 708 mmHg 42%
    13:00 +12°C° 0 mm 8 mps 707 mmHg 42%
    14:00 +12°C° 0 mm 7 mps 707 mmHg 45%
    15:00 +11°C° 0 mm 7 mps 707 mmHg 48%
    16:00 +11°C° 0 mm 6 mps 706 mmHg 51%
    17:00 +9°C° 0 mm 5 mps 707 mmHg 57%
    18:00 +8°C° 0 mm 5 mps 707 mmHg 62%
    19:00 +6°C° 0 mm 4 mps 707 mmHg 68%
    20:00 +6°C° 0 mm 4 mps 708 mmHg 71%
    21:00 +6°C° 0 mm 4 mps 708 mmHg 75%
    22:00 +6°C° 0 mm 4 mps 708 mmHg 78%
    23:00 +6°C° 0 mm 4 mps 708 mmHg 80%

    Day after tomorrow, 24 July, Monday

    Time Temperature Precipitation Wind Pressure Humidity
    00:00 +6°C° 0 mm 4 mps 708 mmHg 83%
    01:00 +6°C° 0 mm 4 mps 708 mmHg 85%
    02:00 +5°C° 0 mm 4 mps 708 mmHg 86%
    03:00 +5°C° 0 mm 4 mps 708 mmHg 86%
    04:00 +5°C° 0 mm 4 mps 708 mmHg 86%
    05:00 +5°C° 0 mm 4 mps 709 mmHg 87%
    06:00 +5°C° 0 mm 3 mps 709 mmHg 87%
    07:00 +5°C° 0 mm 3 mps 710 mmHg 87%
    08:00 +6°C° 0 mm 4 mps 710 mmHg 80%
    09:00 +7°C° 0 mm 4 mps 711 mmHg 72%
    10:00 +10°C° 0 mm 4 mps 711 mmHg 65%
    11:00 +10°C° 0 mm 5 mps 711 mmHg 62%
    12:00 +10°C° 0 mm 5 mps 711 mmHg 59%
    13:00 +12°C° 0 mm 5 mps 711 mmHg 57%
    14:00 +10°C° 0 mm 5 mps 711 mmHg 61%
    15:00 +10°C° 0 mm 4 mps 710 mmHg 66%
    16:00 +8°C° 0 mm 4 mps 710 mmHg 70%
    17:00 +8°C° 0 mm 3 mps 711 mmHg 76%
    18:00 +7°C° 0 mm 3 mps 711 mmHg 81%
    19:00 +6°C° 0 mm 2 mps 712 mmHg 86%
    20:00 +5°C° 0 mm 2 mps 712 mmHg 88%
    21:00 +5°C° 0 mm 2 mps 712 mmHg 90%
    22:00 +4°C° 0 mm 2 mps 713 mmHg 92%
    23:00 +4°C° 0 mm 2 mps 713 mmHg 93%

    25 July, Tuesday

    Time Temperature Precipitation Wind Pressure Humidity
    00:00 +4°C° 0 mm 1 mps 712 mmHg 94%
    01:00 +4°C° 0 mm 1 mps 712 mmHg 94%
    02:00 +3°C° 0 mm 1 mps 712 mmHg 94%
    03:00 +3°C° 0 mm 1 mps 712 mmHg 94%
    04:00 +3°C° 0 mm 1 mps 712 mmHg 94%
    05:00 +3°C° 0 mm 1 mps 712 mmHg 94%
    06:00 +3°C° 0 mm 1 mps 712 mmHg 95%
    07:00 +3°C° 0 mm 1 mps 713 mmHg 95%
    08:00 +4°C° 0 mm 2 mps 713 mmHg 88%
    09:00 +7°C° 0 mm 2 mps 713 mmHg 80%
    10:00 +9°C° 0 mm 3 mps 714 mmHg 72%
    11:00 +10°C° 0 mm 4 mps 713 mmHg 67%
    12:00 +12°C° 0 mm 4 mps 712 mmHg 61%
    13:00 +13°C° 0 mm 5 mps 712 mmHg 55%
    14:00 +13°C° 0 mm 5 mps 711 mmHg 57%
    15:00 +13°C° 0 mm 4 mps 711 mmHg 59%
    16:00 +12°C° 0 mm 4 mps 710 mmHg 61%
    17:00 +11°C° 0 mm 4 mps 710 mmHg 68%
    18:00 +9°C° 0 mm 3 mps 710 mmHg 75%
    19:00 +8°C° 0 mm 3 mps 710 mmHg 82%
    20:00 +8°C° 0 mm 3 mps 710 mmHg 78%
    21:00 +8°C° 0 mm 4 mps 710 mmHg 73%
    22:00 +8°C° 0 mm 5 mps 709 mmHg 69%
    23:00 +9°C° 0 mm 5 mps 709 mmHg 68%

    26 July, Wednesday

    Time Temperature Precipitation Wind Pressure Humidity
    00:00 +9°C° 0 mm 5 mps 709 mmHg 66%
    01:00 +10°C° 0 mm 6 mps 708 mmHg 65%
    02:00 +9°C° 0.1 mm 6 mps 708 mmHg 67%
    03:00 +9°C° 0.1 mm 5 mps 707 mmHg 70%
    04:00 +8°C° 0.1 mm 5 mps 707 mmHg 72%
    05:00 +8°C° 0.4 mm 5 mps 707 mmHg 77%
    06:00 +7°C° 0.4 mm 5 mps 708 mmHg 82%
    07:00 +7°C° 0.4 mm 4 mps 708 mmHg 87%
    08:00 +7°C° 0.1 mm 5 mps 708 mmHg 84%
    09:00 +8°C° 0.1 mm 6 mps 708 mmHg 80%
    10:00 +8°C° 0.1 mm 6 mps 709 mmHg 77%
    11:00 +9°C° 0.1 mm 6 mps 708 mmHg 72%
    12:00 +9°C° 0.1 mm 7 mps 708 mmHg 67%
    13:00 +10°C° 0.1 mm 7 mps 708 mmHg 63%
    14:00 +9°C° 0.1 mm 7 mps 708 mmHg 64%
    15:00 +9°C° 0.1 mm 7 mps 708 mmHg 64%
    16:00 +8°C° 0.1 mm 6 mps 708 mmHg 65%
    17:00 +7°C° 0 mm 6 mps 708 mmHg 69%
    18:00 +6°C° 0 mm 5 mps 709 mmHg 73%
    19:00 +5°C° 0 mm 4 mps 709 mmHg 77%
    20:00 +5°C° 0 mm 4 mps 710 mmHg 79%
    21:00 +5°C° 0 mm 3 mps 710 mmHg 81%
    22:00 +4°C° 0 mm 3 mps 711 mmHg 84%
    23:00 +5°C° 0 mm 2 mps 711 mmHg 87%

    27 July, Thursday

    Time Temperature Precipitation Wind Pressure Humidity
    00:00 +4°C° 0 mm 2 mps 711 mmHg 90%
    01:00 +3°C° 0 mm 2 mps 711 mmHg 94%
    02:00 +3°C° 0 mm 2 mps 711 mmHg 94%
    03:00 +4°C° 0 mm 1 mps 712 mmHg 95%
    04:00 +3°C° 0 mm 1 mps 712 mmHg 96%
    05:00 +3°C° 0 mm 1 mps 712 mmHg 95%
    06:00 +2°C° 0 mm 1 mps 713 mmHg 95%
    07:00 +2°C° 0 mm 1 mps 714 mmHg 95%
    08:00 +4°C° 0 mm 1 mps 714 mmHg 81%
    09:00 +6°C° 0 mm 1 mps 715 mmHg 67%
    10:00 +9°C° 0 mm 1 mps 716 mmHg 53%
    11:00 +10°C° 0 mm 1 mps 715 mmHg 46%
    12:00 +12°C° 0 mm 1 mps 715 mmHg 40%
    13:00 +14°C° 0 mm 1 mps 715 mmHg 33%
    14:00 +13°C° 0 mm 1 mps 715 mmHg 36%
    15:00 +12°C° 0 mm 1 mps 715 mmHg 40%
    16:00 +12°C° 0 mm 2 mps 715 mmHg 43%
    17:00 +9°C° 0 mm 1 mps 715 mmHg 55%
    18:00 +7°C° 0 mm 1 mps 715 mmHg 66%
    19:00 +4°C° 0 mm 1 mps 715 mmHg 78%
    20:00 +4°C° 0 mm 1 mps 715 mmHg 81%
    21:00 +4°C° 0 mm 1 mps 715 mmHg 84%
    22:00 +3°C° 0 mm 1 mps 715 mmHg 87%
    23:00 +3°C° 0 mm 1 mps 715 mmHg 86%
    Show more